EW3832 Weather Reports


time (UTC)temp
C
wind
direction
speed
KPH
gust
KPH
rain 1hr
cm
rain 24hr
cm
rain mn
cm
humidity
%
barometer
mb
20260510120013 13 284 0.0 0.0 0.00 0.00 0.00 86 1022.3
20260510114511 13 284 0.0 0.0 0.00 0.00 0.00 85 1022.2
20260510113013 13 284 0.0 0.0 0.00 0.00 0.00 86 1022.1
20260510111509 14 284 0.0 0.0 0.00 0.00 0.00 84 1021.9
20260510110008 14 284 0.0 0.0 0.00 0.00 0.00 83 1021.8
20260510104509 14 284 0.0 0.0 0.00 0.00 0.00 84 1021.9
20260510103005 14 284 0.0 0.0 0.00 0.00 0.00 84 1021.8
20260510101503 15 284 0.0 0.0 0.00 0.00 0.00 82 1021.6
20260510100003 14 284 1.6 3.2 0.00 0.00 0.00 82 1021.3
20260510094601 15 256 0.0 1.6 0.00 0.00 0.00 82 1021.1
20260510093109 13 256 0.0 3.2 0.00 0.00 0.00 84 1020.9
20260510091559 14 308 0.0 3.2 0.00 0.00 0.00 85 1020.7
20260510090058 13 252 0.0 3.2 0.00 0.00 0.00 86 1020.8
20260510084602 13 240 0.0 3.2 0.00 0.00 0.00 86 1021.2
20260510083055 13 35 0.0 3.2 0.00 0.00 0.00 86 1020.8
20260510081621 13 35 0.0 3.2 0.00 0.00 0.00 84 1020.6
20260510080054 13 35 0.0 3.2 0.00 0.00 0.00 83 1020.5
20260510074548 13 355 0.0 0.0 0.00 0.00 0.00 84 1020.3
20260510073057 13 355 0.0 0.0 0.00 0.00 0.00 82 1020.3
20260510071546 13 355 0.0 1.6 0.00 0.00 0.00 83 1020.0
20260510070044 13 355 0.0 1.6 0.00 0.00 0.00 81 1020.1
20260510064553 14 346 0.0 0.0 0.00 0.00 0.00 81 1020.2
20260510063044 14 346 0.0 0.0 0.00 0.00 0.00 80 1020.4
20260510061546 14 346 0.0 1.6 0.00 0.00 0.00 80 1020.4
20260510060047 15 153 0.0 3.2 0.00 0.00 0.00 77 1020.6
20260510054538 15 273 0.0 0.0 0.00 0.00 0.00 75 1020.5
20260510053042 15 273 0.0 3.2 0.00 0.00 0.00 74 1020.4
20260510051536 16 273 0.0 0.0 0.00 0.00 0.00 74 1020.2
20260510050030 16 273 0.0 3.2 0.00 0.00 0.00 74 1020.1
20260510044630 16 273 0.0 0.0 0.00 0.00 0.00 70 1020.0
20260510043031 17 273 0.0 1.6 0.00 0.00 0.00 70 1020.0
20260510041527 17 273 0.0 1.6 0.00 0.00 0.00 65 1019.8
20260510040038 17 273 0.0 0.0 0.00 0.00 0.00 70 1019.6
20260510034524 17 273 0.0 0.0 0.00 0.00 0.00 69 1019.6
20260510033034 18 273 0.0 0.0 0.00 0.00 0.00 68 1019.3
20260510031522 18 273 0.0 3.2 0.00 0.00 0.00 66 1019.3
20260510030019 18 273 0.0 0.0 0.00 0.00 0.00 65 1019.1
20260510024517 18 273 0.0 3.2 0.00 0.00 0.00 64 1018.8
20260510023016 19 273 0.0 1.6 0.00 0.00 0.00 59 1018.5
20260510021517 20 273 0.0 0.0 0.00 0.00 0.00 55 1018.1
20260510020021 20 273 0.0 1.6 0.00 0.00 0.00 57 1017.8
20260510014515 21 273 0.0 0.0 0.00 0.00 0.00 52 1017.5
20260510013014 21 273 0.0 3.2 0.00 0.00 0.00 51 1017.3
20260510011518 22 273 0.0 3.2 0.00 0.00 0.00 49 1017.2
20260510010020 22 261 0.0 3.2 0.00 0.00 0.00 48 1017.1
20260510004515 23 250 0.0 0.0 0.00 0.00 0.00 46 1017.0
20260510003013 23 250 0.0 0.0 0.00 0.00 0.00 46 1016.8
20260510001512 24 250 0.0 3.2 0.00 0.00 0.00 43 1016.7
20260510000017 25 248 0.0 3.2 0.00 0.00 0.00 41 1016.7
20260509234517 26 213 0.0 3.2 0.00 0.00 0.00 40 1016.8
20260509233011 26 244 0.0 3.2 0.00 0.00 0.00 38 1016.8
20260509231513 26 247 0.0 3.2 0.00 0.00 0.00 39 1016.8
20260509230017 27 250 1.6 6.4 0.00 0.00 0.00 35 1016.8
20260509224508 27 245 1.6 6.4 0.00 0.00 0.00 34 1016.7
20260509223010 27 207 3.2 9.7 0.00 0.00 0.00 35 1016.6
20260509221507 28 109 1.6 6.4 0.00 0.00 0.00 39 1016.7
20260509220006 29 286 1.6 6.4 0.00 0.00 0.00 34 1016.8
20260509214502 28 69 0.0 6.4 0.00 0.00 0.00 31 1016.8
20260509213002 28 324 1.6 8.0 0.00 0.00 0.00 30 1016.8
20260509211501 28 267 1.6 8.0 0.00 0.00 0.00 32 1016.9
20260509204558 28 146 1.6 8.0 0.00 0.00 0.00 34 1017.0
20260509203111 28 49 1.6 3.2 0.00 0.00 0.00 34 1017.2
20260509201603 27 90 0.0 4.8 0.00 0.00 0.00 33 1017.3
20260509200107 27 327 3.2 8.0 0.00 0.00 0.00 33 1017.6
20260509194552 26 318 1.6 8.0 0.00 0.00 0.00 37 1017.7
20260509193110 27 67 1.6 9.7 0.00 0.00 0.00 37 1017.8
20260509191550 27 196 1.6 16.1 0.00 0.00 0.00 40 1017.8
20260509190149 27 269 3.2 8.0 0.00 0.00 0.00 36 1017.9
20260509184559 27 217 1.6 11.3 0.00 0.00 0.00 37 1017.9
20260509183044 26 230 3.2 9.7 0.00 0.00 0.00 39 1017.9
20260509181546 27 16 3.2 14.5 0.00 0.00 0.00 36 1018.0
20260509180041 26 188 0.0 6.4 0.00 0.00 0.00 39 1018.0
20260509174538 26 53 0.0 4.8 0.00 0.00 0.00 44 1018.1
20260509173042 26 234 0.0 6.4 0.00 0.00 0.00 44 1018.3
20260509171542 26 254 1.6 9.7 0.00 0.00 0.00 47 1018.3
20260509170032 25 208 0.0 12.9 0.00 0.00 0.00 48 1018.5
20260509164528 25 169 3.2 9.7 0.00 0.00 0.00 58 1018.6
20260509163026 24 157 1.6 8.0 0.00 0.00 0.00 50 1018.6
20260509161529 24 5 0.0 8.0 0.00 0.00 0.00 53 1018.6
20260509160025 23 269 3.2 8.0 0.00 0.00 0.00 54 1018.6
20260509154520 23 148 1.6 4.8 0.00 0.00 0.00 57 1018.6
20260509153015 22 342 0.0 3.2 0.00 0.00 0.00 61 1018.5
20260509151513 21 196 1.6 6.4 0.00 0.00 0.00 64 1018.5
20260509150009 21 238 0.0 6.4 0.00 0.00 0.00 68 1018.6
20260509144505 20 217 1.6 8.0 0.00 0.00 0.00 70 1018.7
20260509143003 19 268 1.6 8.0 0.00 0.00 0.00 73 1018.7
20260509141559 18 258 1.6 8.0 0.00 0.00 0.00 76 1018.6
20260509140100 18 214 0.0 3.2 0.00 0.00 0.00 77 1018.6
20260509134552 17 169 0.0 4.8 0.00 0.00 0.00 80 1018.6
20260509133052 16 119 0.0 3.2 0.00 0.00 0.00 81 1018.6
20260509131549 15 5 0.0 0.0 0.00 0.00 0.00 86 1018.3
20260509130050 13 5 0.0 0.0 0.00 0.00 0.00 90 1018.3
20260509124603 12 5 0.0 0.0 0.00 0.00 0.00 92 1018.2
20260509123046 11 5 0.0 0.0 0.00 0.00 0.00 92 1018.2
20260509121546 11 5 0.0 0.0 0.00 0.00 0.00 91 1017.9